Time,TemperatureF,DewpointF,PressureIn,WindDirection,WindDirectionDegrees,WindSpeedMPH,WindSpeedGustMPH,Humidity,HourlyPrecipIn,Conditions,Clouds,dailyrainin,SoftwareType,DateUTC
2013-01-11 00:30:00,19.4,16.2,30.46,NW,308,0.0,22.0,87,0.00,,,0.00,Wunderground v.1.13,2013-01-11 05:30:00,
2013-01-11 01:00:00,18.3,14.8,30.46,NW,309,0.0,22.0,86,0.00,,,0.00,Wunderground v.1.13,2013-01-11 06:00:00,
2013-01-11 01:30:00,18.3,15.6,30.45,NW,309,0.0,22.0,89,0.00,,,0.00,Wunderground v.1.13,2013-01-11 06:30:00,
2013-01-11 02:00:00,17.7,14.8,30.43,NW,309,0.0,22.0,88,0.00,,,0.00,Wunderground v.1.13,2013-01-11 07:00:00,
2013-01-11 02:30:00,17.8,14.6,30.42,NW,309,0.0,22.0,87,0.00,,,0.00,Wunderground v.1.13,2013-01-11 07:30:00,
2013-01-11 03:00:00,17.2,14.0,30.42,NW,309,0.0,22.0,87,0.00,,,0.00,Wunderground v.1.13,2013-01-11 08:00:00,
2013-01-11 03:30:00,17.3,14.4,30.41,NW,309,0.0,22.0,88,0.00,,,0.00,Wunderground v.1.13,2013-01-11 08:30:00,
2013-01-11 04:00:00,18.1,15.4,30.38,NW,309,0.0,22.0,89,0.00,,,0.00,Wunderground v.1.13,2013-01-11 09:00:00,
2013-01-11 04:30:00,18.6,15.9,30.38,NW,309,0.0,22.0,89,0.00,,,0.00,Wunderground v.1.13,2013-01-11 09:30:00,
2013-01-11 05:00:00,18.9,16.2,30.36,NW,309,0.0,22.0,89,0.00,,,0.00,Wunderground v.1.13,2013-01-11 10:00:00,
2013-01-11 05:30:00,19.5,16.8,30.35,NW,309,0.0,22.0,89,0.00,,,0.00,Wunderground v.1.13,2013-01-11 10:30:00,
2013-01-11 06:00:00,20.3,17.8,30.34,NW,309,0.0,22.0,90,0.00,,,0.00,Wunderground v.1.13,2013-01-11 11:00:00,
2013-01-11 06:30:00,22.4,20.2,30.32,NW,309,0.0,22.0,91,0.00,,,0.00,Wunderground v.1.13,2013-01-11 11:30:00,
2013-01-11 07:00:00,23.9,21.7,30.32,NW,309,0.0,22.0,91,0.00,,,0.00,Wunderground v.1.13,2013-01-11 12:00:00,
2013-01-11 07:30:00,24.4,21.6,30.31,NW,309,0.0,22.0,89,0.00,,,0.00,Wunderground v.1.13,2013-01-11 12:30:00,
2013-01-11 08:00:00,24.7,21.7,30.28,NW,309,0.0,22.0,88,0.00,,,0.00,Wunderground v.1.13,2013-01-11 13:00:00,
2013-01-11 08:30:00,25.3,22.2,30.27,NW,309,0.0,22.0,88,0.00,,,0.00,Wunderground v.1.13,2013-01-11 13:30:00,
2013-01-11 09:00:00,26.9,23.3,30.24,NW,309,0.0,22.0,86,0.00,,,0.00,Wunderground v.1.13,2013-01-11 14:00:00,
2013-01-11 09:30:00,28.1,23.9,30.22,NNE,21,1.0,22.0,84,0.00,,,0.00,Wunderground v.1.13,2013-01-11 14:30:00,
2013-01-11 10:00:00,29.4,24.9,30.19,NNE,24,1.0,22.0,83,0.00,,,0.00,Wunderground v.1.13,2013-01-11 15:00:00,
2013-01-11 10:30:00,30.7,24.3,30.17,ENE,61,1.0,22.0,77,0.00,,,0.00,Wunderground v.1.13,2013-01-11 15:30:00,
2013-01-11 11:00:00,31.0,24.0,30.16,NE,40,2.0,22.0,75,0.00,,,0.00,Wunderground v.1.13,2013-01-11 16:00:00,
2013-01-11 11:30:00,31.5,26.0,30.15,NE,53,2.0,2.0,80,0.00,,,0.00,Wunderground v.1.13,2013-01-11 16:30:00,
2013-01-11 12:00:00,31.5,27.5,30.13,NE,38,2.0,2.0,85,0.00,,,0.01,Wunderground v.1.13,2013-01-11 17:00:00,
2013-01-11 12:30:00,31.8,27.5,30.11,NNE,26,3.0,22.0,84,0.00,,,0.01,Wunderground v.1.13,2013-01-11 17:30:00,
2013-01-11 13:00:00,31.9,28.2,30.08,NNE,32,4.0,22.0,86,0.00,,,0.01,Wunderground v.1.13,2013-01-11 18:00:00,
2013-01-11 13:30:00,32.2,28.8,30.06,NNE,32,2.0,22.0,87,0.00,,,0.01,Wunderground v.1.13,2013-01-11 18:30:00,
2013-01-11 14:00:00,32.7,29.0,30.04,NNE,27,3.0,3.0,86,0.00,,,0.01,Wunderground v.1.13,2013-01-11 19:00:00,
2013-01-11 14:30:00,32.9,28.6,30.03,NE,42,2.0,22.0,84,0.00,,,0.01,Wunderground v.1.13,2013-01-11 19:30:00,
2013-01-11 15:00:00,33.2,28.9,30.02,NE,40,1.0,22.0,84,0.00,,,0.01,Wunderground v.1.13,2013-01-11 20:00:00,
2013-01-11 15:30:00,33.2,28.9,30.01,NNE,30,1.0,1.0,84,0.00,,,0.01,Wunderground v.1.13,2013-01-11 20:30:00,
2013-01-11 16:00:00,33.5,28.9,30.00,NE,46,2.0,2.0,83,0.00,,,0.01,Wunderground v.1.13,2013-01-11 21:00:00,
2013-01-11 16:30:00,33.5,28.9,29.98,NE,47,1.0,1.0,83,0.00,,,0.01,Wunderground v.1.13,2013-01-11 21:30:00,
2013-01-11 17:00:00,33.7,29.4,29.97,NE,46,0.0,22.0,84,0.00,,,0.01,Wunderground v.1.13,2013-01-11 22:00:00,
2013-01-11 17:30:00,33.8,29.5,29.96,NE,46,0.0,22.0,84,0.00,,,0.01,Wunderground v.1.13,2013-01-11 22:30:00,
2013-01-11 18:00:00,34.0,30.0,29.97,NE,46,0.0,22.0,85,0.00,,,0.01,Wunderground v.1.13,2013-01-11 23:00:00,
2013-01-11 18:30:00,33.7,30.2,29.96,NE,46,0.0,22.0,87,0.00,,,0.01,Wunderground v.1.13,2013-01-11 23:30:00,
2013-01-11 19:00:00,33.8,30.6,29.95,NE,46,0.0,22.0,88,0.00,,,0.01,Wunderground v.1.13,2013-01-12 00:00:00,
2013-01-11 19:30:00,34.0,30.8,29.96,NE,46,0.0,22.0,88,0.00,,,0.01,Wunderground v.1.13,2013-01-12 00:30:00,
2013-01-11 20:00:00,33.8,30.9,29.96,NE,46,0.0,22.0,89,0.00,,,0.01,Wunderground v.1.13,2013-01-12 01:00:00,
2013-01-11 20:30:00,33.8,30.9,29.94,NE,46,0.0,22.0,89,0.00,,,0.01,Wunderground v.1.13,2013-01-12 01:30:00,
2013-01-11 21:00:00,33.7,30.8,29.94,NE,46,0.0,22.0,89,0.00,,,0.01,Wunderground v.1.13,2013-01-12 02:00:00,
2013-01-11 21:30:00,33.4,30.8,29.94,NE,46,0.0,22.0,90,0.00,,,0.01,Wunderground v.1.13,2013-01-12 02:30:00,
2013-01-11 22:00:00,33.2,31.1,29.93,NE,46,0.0,22.0,92,0.00,,,0.01,Wunderground v.1.13,2013-01-12 03:00:00,
2013-01-11 22:30:00,33.2,31.4,29.94,NE,46,0.0,22.0,93,0.00,,,0.01,Wunderground v.1.13,2013-01-12 03:30:00,
2013-01-11 23:00:00,33.2,31.4,29.94,NE,46,0.0,22.0,93,0.00,,,0.01,Wunderground v.1.13,2013-01-12 04:00:00,
2013-01-11 23:29:00,33.5,32.0,29.94,NE,46,0.0,22.0,94,0.00,,,0.02,Wunderground v.1.13,2013-01-12 04:29:00,